Terminal Aerodrome Forecast
Issued by NWS

Home | Current Version | Previous Version | Text Only | Print | Product List | Glossary On
Versions: 1 2 3 4 5 6 7 8 9 10 11 12 13
188
FTUS45 KRIW 032320
TAFCOD
TAF
KCOD 032320Z 0400/0424 25014G26KT P6SM SCT110
     FM041100 23013G20KT P6SM BKN060 OVC100
      AMD LTD TO CLD VIS AND WIND=

USA.gov is the U.S. government's official web portal to all federal, state and local government web resources and services.